Other Public Products
Issued by NWS Charleston, SC

Current Version | Previous Version | Text Only | Print | Product List | Glossary Off
Versions: 1 2 3 4 5 6 7 8 9 10 11 12 13 14 15 16 17 18 19 20 21 22 23 24 25 26 27 28 29 30 31 32 33 34 35 36 37 38 39 40 41 42 43 44 45 46 47 48 49 50

560
FPUS82 KCHS 230412
OPUCHS

TEST...KCHS/KSAV Gateway Observations...TEST
National Weather Service Charleston SC
1100 PM EST WED NOV 22 2017

NOTE: "fair" indicates few or no clouds below 12,000 feet with no
significant weather and/or obstructions to visibility.

SCZ050-WAZ558-NCZ071-TXZ119-213-PAZ071-DCZ001-FLZ074-172-MI076-
NYZ176-178-MAZ016-IL014-TNZ027-NJZ106-GAZ044-MD014-230500-

...Gateway Observations for Charleston International...

CITY           SKY/WX    TMP DP  RH WIND       PRES   REMARKS
Chas Airport   MOCLDY    55  48  77 NE7       30.08R
Seattle        LGT RAIN  63  55  75 S12       29.85S
Charlotte      PTCLDY    47  27  45 N10       30.15R
Dallas DFW     CLOUDY    45  23  42 CALM      30.26S
Dallas Love    CLOUDY    44  30  57 CALM      30.28S
Philladelphia  PTCLDY    38  21  50 NW8       30.15R WCI  32
Wash National  PTCLDY    39  24  55 NW9       30.20S WCI  33
Baltimore      PTCLDY    36  23  59 NW5       30.18R WCI  32
Miami          PTCLDY    75  69  81 SE7       29.95S
Detroit        CLOUDY    28  20  71 CALM      30.22F
Newark         PTCLDY    36  20  52 NW16G25   30.10R WCI  26
Laguardia      CLEAR     38  23  55 NW20G28   30.07R WCI  28
J F K          PTCLDY    36  22  56 NW21G26   30.09R WCI  25
Boston Logan   CLOUDY    39  27  62 NW18G28   29.91R WCI  30
Ft. Lauderdale PTCLDY    77  71  82 SE12      29.94S
Chicago O`Hare MOCLDY    31  18  58 SW7       30.18F WCI  24
Chicago Midway CLOUDY    32  18  56 SW9       30.20F WCI  24
Houston Bush   CLEAR     53  39  59 NW8       30.25R
Houston Hobby  CLEAR     55  39  54 N9        30.24R
Nashville      CLEAR     36  24  62 N6        30.25R WCI  31
Atlanta        MOCLDY    45  32  60 NW6       30.09R

$$

GAZ044-118-TXZ119-213-NCZ071-DCZ001-MDZ014-506-PAZ021-071-NJZ106-
NYZ176-178-MAZ106-OHZ011-021-055-MIZ076-KYZ091-ILZ014-INZ047-
MNZ060-ONZ431-230500-

...Gateway Observations for Savannah International...

CITY           SKY/WX    TMP DP  RH WIND       PRES   REMARKS
Savannah Arpt  CLOUDY    59  57  93 N3        30.07R
Atlanta        MOCLDY    45  32  60 NW6       30.09R
Charlotte      PTCLDY    47  27  45 N10       30.15R
Dallas DFW     CLOUDY    45  23  42 CALM      30.26S
Houston Bush   CLEAR     53  39  59 NW8       30.25R
Wash National  PTCLDY    39  24  55 NW9       30.20S WCI  33
Wash Dulles    PTCLDY    36  23  59 NW6       30.20S WCI  31
Baltimore      PTCLDY    36  23  59 NW5       30.18R WCI  32
Philadelphia   PTCLDY    38  21  50 NW8       30.15R WCI  32
Newark         PTCLDY    36  20  52 NW16G25   30.10R WCI  26
Laguardia      CLEAR     38  23  55 NW20G28   30.07R WCI  28
J F K          PTCLDY    36  22  56 NW21G26   30.09R WCI  25
Boston         CLOUDY    39  27  62 NW18G28   29.91R WCI  30
Pittsburg      CLOUDY    30  22  72 W3        30.21R
Akron          CLOUDY    29  17  61 SW5       30.22S WCI  24
Cleveland      CLOUDY    30  20  66 SW6       30.25F WCI  24
Cincinnati     CLOUDY    31  24  75 E3        30.23F
Columbus       CLOUDY    26  21  82 CALM      30.25S
Detroit        CLOUDY    28  20  71 CALM      30.22F
Chicago O`Hare MOCLDY    31  18  58 SW7       30.18F WCI  24
Minneapolis    CLOUDY    32  18  56 S7        29.98F WCI  26
Indianapolis   MOCLDY    30  23  75 CALM      30.24F
Toronto Canada MOCLDY    30  18  59 W12G18    30.17F WCI  21

$$




USA.gov is the U.S. government's official web portal to all federal, state and local government web resources and services.